Starlink 11449

operational
NORAD ID: 63012 Int'l Des: 2025-032 Owner: SPXS Country: US Constellation: starlink
LEOCIRCULAR

Über Starlink 11449

Beschreibung wird geladen...

Live-Position

3D-Globus wird geladen...

Nächste Überflüge

Höhenverlauf

Altitude vs Time

uPlot chart will show altitude changes over time

Zweizeiliger Elementsatz

1 63012U 25032H 25352.29776085 .00136573 00000-0 10480-2 0 9995
2 63012 43.0016 325.8825 0001875 279.2630 80.8025 15.70894643 49419
Epoch: 18. Dez. 2025 • Age: 18 hours

Aktueller Status

Höhe 363.5 km
Geschwindigkeit 7.69 km/s
Subsatellitenpunkt -31.14°S, 80.14°E
Startdatum 15. Feb. 2025
Alter 0.8 years
Typ internet

Technische Details

Klassifizierung Payload
Masse 960.00 kg
Trockenmasse 910.00 kg
Gesamtmasse 960.00 kg
Länge 0.30 m
Durchmesser 4.10 m
Spannweite 29.00 m
Form Box + pan
Hersteller SPXS
Bus-Typ Starlink V2MD
Phasenstatus In Orbit
Besitzer/Staat SPXS/US

Große Konstellationen

Loading constellations...